{"data":{"norad_id":67371,"epoch":"2026-05-24T23:50:40.538400Z","epoch_age_seconds":71552,"freshness":"FRESH","line1":"1 67371U 26004J   26144.99352475  .00003778  00000+0  40634-3 0  9991","line2":"2 67371  97.8013 144.0898 0005387 191.4691 168.6404 14.89098815 19857","mean_motion":14.89098815,"eccentricity":0.0005387,"inclination_deg":97.8013,"raan_deg":144.0898,"arg_perigee_deg":191.4691,"mean_anomaly_deg":168.6404,"bstar":0.00040634,"rev_number":1985,"period_min":96.702783287085,"perigee_km":596.99041286885,"apogee_km":604.50946565721,"semimajor_km":6978.886939263,"source":"CELESTRAK","updated_at":"2026-05-25T13:38:06.928666Z"}}